Content
SEND FEEDBACK

Daily
Averages
Monthly
Summary
United States of America

ACHANG BAY, GUAM


Home > North America > United States > Guam
Elevation: 30 feet     Latitude: 13 16N     Longitude: 144 45E

WEATHER
 
SELECT A DAY
Number of Records: 342,579;   Date Range: 1/1/95 - 9/18/14
 
SHARE

PRINT THIS DATA

[ ← Previous Day ]
WEATHER ALMANAC - AUGUST 13, 2013
[ Next Day → ]
[ °C ]   °F
Weather ElementAverageHighLow
Temperature79.6 °F86 °F (1:28 pm)75.6 °F (7:55 pm)
Dewpoint75.8 °F78.8 °F (1:28 pm)72.7 °F (8:55 pm)
Humidity88.4 %96 % (1:55 am)70 % (2:27 pm)
Barometer29.82 in29.86 in (12:21 am)29.78 in (2:55 am)
Wind Speed6.6 mph13.8 mph (5:39 am)
Weather ElementAverage
Visibility8.5 mi
Wind DirectionENE (82.3 °)

Weather ElementTotal
Precipitation0.24 in
Cooling Degree Days15.8 (Base 65)
Growing Degree Days30.8 (Base 50)
Averaged from 57 records on August 13, 2013
WEATHER CONDITIONS BREAKOUT
WIND DIRECTION BREAKOUT
WEATHER BY HOUR - AUGUST 13, 2013
[ °C ]   °F
Local TimeTemperatureDewpointHumidityBarometerVisibilityWind DirectionWind SpeedGust SpeedPrecipitationEventsConditions
12:21 AM77.0 °F75.2 °F94 %29.86 in10.0 miEast (80°)5.8 mphMostly Cloudy
12:25 AM77.0 °F75.2 °F94 %29.86 in10.0 miEast (80°)5.8 mphMostly Cloudy
12:35 AM78.8 °F77.0 °F94 %29.84 in10.0 miEast (80°)4.6 mphMostly Cloudy
12:55 AM78.4 °F76.6 °F94 %29.84 in10.0 miEast (100°)4.6 mph0.00 inPartly Cloudy
1:55 AM77.5 °F76.3 °F96 %29.81 in10.0 miCalmThunderstormClear
2:55 AM77.5 °F76.3 °F96 %29.78 in10.0 miCalmClear
3:55 AM78.4 °F76.5 °F94 %29.79 in10.0 miESE (110°)5.8 mphPartly Cloudy
4:40 AM78.8 °F77.0 °F94 %29.80 in9.0 miEast (100°)4.6 mphDrizzle
4:54 AM78.8 °F77.0 °F94 %29.80 in8.0 miSSE (150°)5.8 mphRainLight Rain
4:55 AM78.4 °F76.3 °F93 %29.80 in8.0 miSSE (160°)4.6 mph0.02 inRainLight Rain
4:57 AM78.8 °F75.2 °F89 %29.80 in8.0 miSE (130°)5.8 mphRainLight Rain
5:03 AM78.8 °F77.0 °F94 %29.81 in10.0 miSE (130°)6.9 mphOvercast
5:28 AM78.8 °F77.0 °F94 %29.81 in10.0 miNE (40°)9.2 mphMostly Cloudy
5:32 AM78.8 °F75.2 °F89 %29.81 in10.0 miNE (40°)12.7 mphMostly Cloudy
5:39 AM78.8 °F75.2 °F89 %29.82 in4.0 miENE (70°)13.8 mphRainLight Rain
5:40 AM78.8 °F75.2 °F89 %29.82 in3.0 miENE (60°)11.5 mphRainHeavy Rain
5:41 AM78.8 °F75.2 °F89 %29.82 in2.5 miNE (50°)10.4 mphRainHeavy Rain
5:43 AM77.0 °F75.2 °F94 %29.82 in2.5 miENE (60°)10.4 mphRainHeavy Rain
5:44 AM77.0 °F75.2 °F94 %29.82 in2.0 miENE (60°)10.4 mphRainLight Rain
5:47 AM77.0 °F75.2 °F94 %29.82 in1.8 miENE (60°)10.4 mphRainLight Rain
5:49 AM77.0 °F75.2 °F94 %29.82 in2.0 miENE (70°)6.9 mphRainHeavy Rain
5:50 AM77.0 °F75.2 °F94 %29.82 in2.5 miENE (60°)5.8 mphRainHeavy Rain
5:52 AM77.0 °F75.2 °F94 %29.82 in3.0 miNE (50°)6.9 mphRainHeavy Rain
5:55 AM77.0 °F75.6 °F95 %29.82 in3.0 miENE (60°)8.1 mph0.20 inRainRain
6:04 AM77.0 °F75.2 °F94 %29.82 in9.0 miENE (70°)12.7 mphRainLight Rain
6:06 AM78.8 °F75.2 °F89 %29.82 in10.0 miEast (80°)12.7 mphLight Drizzle
6:12 AM78.8 °F75.2 °F89 %29.82 in10.0 miEast (80°)10.4 mphMostly Cloudy
6:14 AM78.8 °F75.2 °F89 %29.82 in10.0 miEast (80°)11.5 mphMostly Cloudy
6:17 AM78.8 °F75.2 °F89 %29.82 in10.0 miEast (90°)11.5 mphScattered Clouds
6:55 AM79.3 °F75.6 °F88 %29.83 in10.0 miEast (90°)5.8 mph0.00 inMostly Cloudy
7:55 AM80.6 °F75.0 °F83 %29.84 in10.0 miEast (90°)8.1 mphClear
8:55 AM83.1 °F76.3 °F80 %29.86 in10.0 miVariable5.8 mphPartly Cloudy
9:55 AM83.7 °F76.5 °F79 %29.86 in10.0 miSE (130°)8.1 mphMostly Cloudy
10:27 AM84.2 °F77.0 °F79 %29.85 in10.0 miESE (120°)9.2 mphScattered Clouds
10:55 AM84.6 °F77.0 °F78 %29.84 in10.0 miESE (120°)8.1 mphScattered Clouds
11:55 AM85.3 °F76.6 °F75 %29.83 in10.0 miEast (80°)6.9 mphScattered Clouds
12:55 PM85.6 °F77.4 °F76 %29.81 in10.0 miESE (110°)8.1 mphMostly Cloudy
1:28 PM86.0 °F78.8 °F79 %29.80 in10.0 miEast (90°)11.5 mphRainLight Rain
1:47 PM82.4 °F77.0 °F84 %29.80 in10.0 miESE (110°)6.9 mphPartly Cloudy
1:55 PM83.7 °F76.8 °F80 %29.81 in10.0 miESE (120°)9.2 mph0.00 inPartly Cloudy
2:27 PM86.0 °F75.2 °F70 %29.80 in10.0 miSE (130°)8.1 mphMostly Cloudy
2:55 PM84.2 °F75.4 °F75 %29.80 in10.0 miEast (100°)9.2 mphMostly Cloudy
3:04 PM84.2 °F75.2 °F74 %29.80 in10.0 miESE (110°)8.1 mphMostly Cloudy
3:43 PM82.4 °F77.0 °F84 %29.80 in10.0 miWest (280°)5.8 mphMostly Cloudy
3:55 PM80.8 °F76.3 °F86 %29.80 in10.0 miWSW (250°)8.1 mphMostly Cloudy
4:01 PM80.6 °F75.2 °F84 %29.80 in10.0 miSW (220°)4.6 mphOvercast
4:14 PM80.6 °F75.2 °F84 %29.80 in10.0 miNW (310°)8.1 mphMostly Cloudy
4:41 PM78.8 °F75.2 °F89 %29.80 in10.0 miNNE (30°)4.6 mphRainLight Rain
4:55 PM77.7 °F75.0 °F91 %29.81 in5.0 miCalm0.02 inRainLight Rain
5:33 PM78.8 °F77.0 °F94 %29.80 in10.0 miCalmClear
5:55 PM79.0 °F75.9 °F90 %29.81 in10.0 miCalm0.00 inPartly Cloudy
6:55 PM77.4 °F74.7 °F91 %29.82 in10.0 miCalmPartly Cloudy
7:55 PM75.6 °F73.9 °F95 %29.84 in10.0 miCalmPartly Cloudy
8:55 PM76.1 °F72.7 °F89 %29.86 in10.0 miCalmMostly Cloudy
9:55 PM78.3 °F75.2 °F90 %29.86 in10.0 miCalmOvercast
10:55 PM77.9 °F75.6 °F92 %29.86 in10.0 miCalmOvercast
11:55 PM78.4 °F75.9 °F92 %29.85 in10.0 miCalmMostly Cloudy
Hourly data recorded from PGUA, located miles away from Achang Bay, Guam







STORIES FROM OUR PARTNERS